FW2211 Weather Reports


time (UTC)temp
C
wind
direction
speed
KPH
gust
KPH
rain 1hr
cm
rain 24hr
cm
rain mn
cm
humidity
%
barometer
mb
20200229090815 13 315 1.6 1.6 0.00 0.00 0.00 53 1016.6
20200229085816 13 315 4.8 6.4 0.00 0.00 0.00 52 1016.6
20200229084817 13 67 3.2 3.2 0.00 0.00 0.00 53 1016.7
20200229083815 13 67 1.6 1.6 0.00 0.00 0.00 55 1016.7
20200229082816 13 0.0 1.6 0.00 0.00 0.00 54 1016.7
20200229081815 13 67 1.6 3.2 0.00 0.00 0.00 55 1016.8
20200229080815 13 67 3.2 3.2 0.00 0.00 0.00 51 1016.9
20200229075816 13 67 1.6 3.2 0.00 0.00 0.00 52 1017.0
20200229074816 13 67 1.6 3.2 0.00 0.00 0.00 52 1017.2
20200229073815 14 67 1.6 3.2 0.00 0.00 0.00 51 1017.2
20200229072815 14 90 3.2 3.2 0.00 0.00 0.00 54 1017.3
20200229071816 12 112 4.8 6.4 0.00 0.00 0.00 57 1017.6
20200229070816 12 0.0 1.6 0.00 0.00 0.00 57 1017.6
20200229065820 12 0.0 0.0 0.00 0.00 0.00 55 1017.5
20200229064816 13 0.0 0.0 0.00 0.00 0.00 56 1017.7
20200229063817 13 0.0 0.0 0.00 0.00 0.00 56 1017.6
20200229062816 13 0.0 0.0 0.00 0.00 0.00 56 1017.6
20200229061816 13 0.0 0.0 0.00 0.00 0.00 57 1017.6
20200229060816 13 180 1.6 3.2 0.00 0.00 0.00 55 1017.8
20200229055816 13 0.0 0.0 0.00 0.00 0.00 54 1017.9
20200229054817 13 0.0 0.0 0.00 0.00 0.00 52 1017.9
20200229053816 13 0.0 0.0 0.00 0.00 0.00 51 1018.0
20200229052816 13 0.0 0.0 0.00 0.00 0.00 50 1017.7
20200229051816 13 0.0 0.0 0.00 0.00 0.00 50 1017.6
20200229050816 14 0.0 0.0 0.00 0.00 0.00 49 1017.5
20200229045816 14 0.0 0.0 0.00 0.00 0.00 46 1017.6
20200229044816 14 0.0 0.0 0.00 0.00 0.00 49 1017.5
20200229043816 15 0.0 0.0 0.00 0.00 0.00 46 1017.5
20200229042816 15 0.0 0.0 0.00 0.00 0.00 46 1017.5
20200229041816 15 0.0 0.0 0.00 0.00 0.00 43 1017.7
20200229040816 16 0.0 0.0 0.00 0.00 0.00 41 1017.7
20200229035816 16 0.0 0.0 0.00 0.00 0.00 42 1017.9
20200229034816 16 0.0 0.0 0.00 0.00 0.00 40 1017.7
20200229033816 17 0.0 0.0 0.00 0.00 0.00 40 1017.6
20200229032816 17 0.0 0.0 0.00 0.00 0.00 39 1017.4
20200229031816 18 0.0 0.0 0.00 0.00 0.00 37 1017.4
20200229030816 18 0.0 0.0 0.00 0.00 0.00 33 1017.4
20200229025816 19 0.0 0.0 0.00 0.00 0.00 33 1017.3
20200229024816 20 0.0 0.0 0.00 0.00 0.00 31 1017.1
20200229023816 20 0.0 0.0 0.00 0.00 0.00 30 1017.0
20200229022816 21 0.0 0.0 0.00 0.00 0.00 29 1016.9
20200229021816 22 0.0 1.6 0.00 0.00 0.00 28 1016.9
20200229020816 22 0.0 1.6 0.00 0.00 0.00 26 1016.8
20200229015816 23 247 3.2 4.8 0.00 0.00 0.00 26 1016.8
20200229014816 23 0.0 1.6 0.00 0.00 0.00 26 1016.6
20200229013816 24 247 3.2 3.2 0.00 0.00 0.00 25 1016.7
20200229012815 25 247 4.8 6.4 0.00 0.00 0.00 25 1016.6
20200229011815 25 225 3.2 4.8 0.00 0.00 0.00 24 1016.7
20200229010815 25 247 4.8 4.8 0.00 0.00 0.00 23 1016.8
20200229005816 26 225 3.2 4.8 0.00 0.00 0.00 22 1016.7
20200229004815 27 225 4.8 4.8 0.00 0.00 0.00 20 1016.7
20200229003815 27 292 1.6 3.2 0.00 0.00 0.00 17 1016.5
20200229002816 27 292 4.8 6.4 0.00 0.00 0.00 17 1016.7
20200229001815 28 247 3.2 3.2 0.00 0.00 0.00 17 1016.7
20200229000816 28 270 3.2 4.8 0.00 0.00 0.00 15 1016.8
20200228235816 28 270 4.8 4.8 0.00 0.00 0.00 13 1016.9
20200228234815 28 247 4.8 4.8 0.00 0.00 0.00 14 1017.0
20200228233815 29 225 6.4 8.0 0.00 0.00 0.00 13 1016.9
20200228232815 29 247 3.2 4.8 0.00 0.00 0.00 13 1016.8
20200228231815 29 202 4.8 6.4 0.00 0.00 0.00 13 1016.8
20200228230815 30 202 3.2 4.8 0.00 0.00 0.00 13 1016.8
20200228225815 30 247 6.4 12.9 0.00 0.00 0.00 13 1016.8
20200228224815 29 225 6.4 8.0 0.00 0.00 0.00 14 1016.8
20200228223815 29 225 6.4 9.7 0.00 0.00 0.00 14 1016.7
20200228222815 29 225 3.2 4.8 0.00 0.00 0.00 14 1017.0
20200228221815 29 202 6.4 8.0 0.00 0.00 0.00 14 1017.0
20200228220815 29 225 6.4 8.0 0.00 0.00 0.00 14 1017.1
20200228215821 30 270 4.8 9.7 0.00 0.00 0.00 14 1017.1
20200228214816 30 292 3.2 4.8 0.00 0.00 0.00 14 1017.0
20200228213815 29 225 3.2 4.8 0.00 0.00 0.00 14 1017.1
20200228212815 29 225 4.8 6.4 0.00 0.00 0.00 15 1017.2
20200228211815 30 157 6.4 11.3 0.00 0.00 0.00 16 1017.0
20200228210818 30 180 6.4 9.7 0.00 0.00 0.00 15 1016.9
20200228205818 29 180 4.8 6.4 0.00 0.00 0.00 14 1016.9
20200228204817 30 225 3.2 4.8 0.00 0.00 0.00 14 1017.0
20200228203817 30 157 6.4 9.7 0.00 0.00 0.00 14 1016.9
20200228202817 30 157 4.8 8.0 0.00 0.00 0.00 14 1017.0
20200228201817 30 202 3.2 6.4 0.00 0.00 0.00 15 1017.2
20200228200817 29 135 9.7 12.9 0.00 0.00 0.00 16 1017.2
20200228195819 28 67 1.6 3.2 0.00 0.00 0.00 15 1017.4
20200228194817 28 270 3.2 3.2 0.00 0.00 0.00 15 1017.5
20200228193817 27 180 1.6 4.8 0.00 0.00 0.00 16 1017.9
20200228192817 27 112 1.6 3.2 0.00 0.00 0.00 16 1018.0
20200228191817 27 135 4.8 6.4 0.00 0.00 0.00 16 1018.3
20200228190817 27 157 4.8 8.0 0.00 0.00 0.00 16 1018.7
20200228185817 27 112 3.2 3.2 0.00 0.00 0.00 16 1018.8
20200228184817 27 135 4.8 8.0 0.00 0.00 0.00 15 1018.9
20200228183817 27 90 3.2 4.8 0.00 0.00 0.00 16 1019.0
20200228182817 26 67 1.6 3.2 0.00 0.00 0.00 16 1018.9
20200228181820 26 90 8.0 11.3 0.00 0.00 0.00 17 1018.8
20200228180817 26 45 4.8 6.4 0.00 0.00 0.00 15 1018.9
20200228175817 26 112 3.2 6.4 0.00 0.00 0.00 20 1019.0
20200228174817 25 135 1.6 3.2 0.00 0.00 0.00 20 1019.2
20200228173816 23 0.0 1.6 0.00 0.00 0.00 23 1019.3
20200228172819 23 0.0 1.6 0.00 0.00 0.00 24 1019.2
20200228171816 23 112 3.2 4.8 0.00 0.00 0.00 26 1019.0
20200228170817 22 135 4.8 6.4 0.00 0.00 0.00 26 1019.2
20200228165816 22 135 3.2 4.8 0.00 0.00 0.00 29 1019.3
20200228164817 22 135 1.6 1.6 0.00 0.00 0.00 29 1019.4
20200228163816 21 0.0 1.6 0.00 0.00 0.00 31 1019.3
20200228162817 20 0.0 0.0 0.00 0.00 0.00 34 1019.3
20200228161816 18 135 1.6 1.6 0.00 0.00 0.00 39 1019.2
20200228160816 17 0.0 1.6 0.00 0.00 0.00 42 1019.0
20200228155816 17 135 3.2 3.2 0.00 0.00 0.00 42 1019.0
20200228154816 16 292 1.6 3.2 0.00 0.00 0.00 44 1018.8
20200228153816 16 292 1.6 3.2 0.00 0.00 0.00 44 1018.6
20200228152817 15 157 1.6 3.2 0.00 0.00 0.00 47 1018.6
20200228151816 15 0.0 1.6 0.00 0.00 0.00 48 1018.5
20200228150816 14 0.0 0.0 0.00 0.00 0.00 47 1018.2
20200228145818 13 90 3.2 3.2 0.00 0.00 0.00 47 1018.3
20200228144816 13 90 1.6 3.2 0.00 0.00 0.00 45 1018.2
20200228143817 14 0.0 1.6 0.00 0.00 0.00 41 1018.0
20200228142816 14 0 1.6 3.2 0.00 0.00 0.00 41 1017.7
20200228141816 14 22 4.8 4.8 0.00 0.00 0.00 40 1017.5
20200228140816 14 22 3.2 4.8 0.00 0.00 0.00 43 1017.7
20200228135816 14 22 3.2 4.8 0.00 0.00 0.00 41 1017.7
20200228134816 14 22 3.2 4.8 0.00 0.00 0.00 40 1017.7
20200228133816 13 22 1.6 3.2 0.00 0.00 0.00 42 1017.6
20200228132818 12 45 1.6 3.2 0.00 0.00 0.00 48 1017.5
20200228131816 12 45 3.2 3.2 0.00 0.00 0.00 51 1017.5
20200228130817 12 45 1.6 3.2 0.00 0.00 0.00 51 1017.4
20200228125816 12 45 4.8 6.4 0.00 0.00 0.00 51 1017.3
20200228124816 11 45 3.2 4.8 0.00 0.00 0.00 53 1017.4
20200228123817 12 45 1.6 3.2 0.00 0.00 0.00 52 1017.3
20200228122816 12 22 3.2 4.8 0.00 0.00 0.00 52 1017.4
20200228121817 12 22 3.2 4.8 0.00 0.00 0.00 52 1017.2
20200228120816 12 22 3.2 4.8 0.00 0.00 0.00 53 1017.2
20200228115817 11 45 4.8 6.4 0.00 0.00 0.00 54 1017.1
20200228114816 11 45 4.8 4.8 0.00 0.00 0.00 56 1017.2
20200228113818 11 45 1.6 3.2 0.00 0.00 0.00 54 1017.2
20200228112816 11 337 1.6 3.2 0.00 0.00 0.00 54 1017.3
20200228111816 11 337 1.6 3.2 0.00 0.00 0.00 55 1017.2
20200228110816 11 0.0 0.0 0.00 0.00 0.00 54 1017.2
20200228105816 11 0.0 0.0 0.00 0.00 0.00 54 1017.1
20200228104816 12 337 1.6 1.6 0.00 0.00 0.00 52 1017.0
20200228103816 12 0 3.2 4.8 0.00 0.00 0.00 53 1017.0
20200228102815 12 45 1.6 1.6 0.00 0.00 0.00 52 1016.7
20200228101816 12 45 3.2 3.2 0.00 0.00 0.00 52 1016.6
20200228100817 12 112 1.6 1.6 0.00 0.00 0.00 53 1016.5
20200228095816 12 0.0 0.0 0.00 0.00 0.00 53 1016.7
20200228094816 12 0.0 0.0 0.00 0.00 0.00 51 1016.7
20200228093815 13 112 3.2 3.2 0.00 0.00 0.00 48 1016.7
20200228092816 13 0.0 0.0 0.00 0.00 0.00 49 1016.5
20200228091815 13 0.0 1.6 0.00 0.00 0.00 48 1016.6